PATHFINDER 1

Last updated on Sun Dec 07 2025 00:02:31 GMT+0000 (Coordinated Universal Time)

1 41787U 16059E 25340.58550285 .00001509 00000+0 27379-3 0 9995 2 41787 97.8138 343.6448 0030032 99.8924 260.5674 14.67304824491469
UTC large
Height (km)
Speed (km/s)
/
Latitude / Longitude
Inclination (degrees)
Orbital Period (minutes)
Azimuth
Elevation
Range (km)
Doppler Factor

Next 0 passes for location: London (51.5072 / 0.1276)

Sorry there are no passes over London.